QPF
0.00 0.00 0.00 0.00 0.00 0.00 0.00 0.00 0.00 0.01 0.01 0.00 0.00 0.01 0.01 0.01 0.01 0.01 0.01 0.02 0.02 0.02 0.03 0.03 0.04 0.05 0.06 0.08 0.14 0.15 0.17 0.19 0.19 0.20 0.21 0.20 0.18 0.17 0.21 0.26 0.30 0.24 0.18 0.14 0.13 0.12 0.12 0.11 0.10
0.00 0.00 0.00 0.00 0.00 0.00 0.00 0.01 0.01 0.01 0.01 0.00 0.01 0.00 0.00 0.01 0.00 0.00 0.01 0.01 0.02 0.01 0.02 0.02 0.03 0.05 0.05 0.09 0.16 0.20 0.22 0.23 0.21 0.18 0.17 0.17 0.19 0.19 0.22 0.28 0.29 0.22 0.18 0.15 0.14 0.13 0.11 0.10 0.08
0.00 0.00 0.00 0.00 0.00 0.00 0.00 0.01 0.02 0.02 0.01 0.01 0.01 0.00 0.01 0.01 0.00 0.01 0.01 0.01 0.01 0.01 0.02 0.03 0.04 0.03 0.04 0.08 0.13 0.17 0.19 0.19 0.17 0.14 0.14 0.17 0.18 0.17 0.21 0.25 0.23 0.20 0.18 0.17 0.15 0.14 0.12 0.09 0.06
0.00 0.00 0.00 0.00 0.00 0.00 0.00 0.00 0.01 0.02 0.01 0.00 0.00 0.00 0.00 0.01 0.00 0.01 0.01 0.01 0.01 0.01 0.01 0.03 0.04 0.03 0.04 0.06 0.07 0.09 0.11 0.14 0.13 0.12 0.13 0.16 0.16 0.16 0.18 0.20 0.19 0.17 0.17 0.15 0.14 0.13 0.12 0.08 0.06
0.00 0.00 0.00 0.00 0.00 0.00 0.00 0.01 0.01 0.01 0.01 0.01 0.00 0.00 0.01 0.01 0.01 0.01 0.01 0.01 0.00 0.00 0.01 0.02 0.03 0.03 0.03 0.04 0.05 0.06 0.06 0.10 0.12 0.12 0.13 0.13 0.11 0.11 0.12 0.12 0.11 0.11 0.11 0.12 0.13 0.11 0.10 0.09 0.07
0.00 0.00 0.00 0.00 0.00 0.00 0.00 0.01 0.02 0.01 0.00 0.00 0.00 0.00 0.01 0.01 0.01 0.00 0.00 0.00 0.00 0.00 0.01 0.02 0.03 0.03 0.03 0.03 0.04 0.04 0.04 0.07 0.10 0.09 0.10 0.09 0.07 0.07 0.07 0.07 0.06 0.05 0.06 0.07 0.09 0.07 0.06 0.06 0.07
0.00 0.00 0.00 0.00 0.00 0.00 0.00 0.00 0.00 0.00 0.00 0.00 0.00 0.00 0.00 0.01 0.00 0.00 0.00 0.00 0.00 0.00 0.00 0.01 0.02 0.03 0.02 0.03 0.03 0.03 0.03 0.04 0.05 0.05 0.06 0.07 0.07 0.07 0.06 0.06 0.05 0.05 0.06 0.05 0.06 0.04 0.03 0.03 0.05
0.00 0.00 0.00 0.00 0.00 0.00 0.00 0.00 0.00 0.00 0.00 0.00 0.00 0.00 0.00 0.01 0.00 0.00 0.00 0.00 0.00 0.00 0.00 0.01 0.01 0.01 0.02 0.01 0.02 0.03 0.03 0.03 0.03 0.03 0.05 0.05 0.05 0.04 0.03 0.03 0.03 0.03 0.04 0.06 0.05 0.04 0.05 0.04 0.04
0.00 0.00 0.00 0.00 0.00 0.00 0.00 0.00 0.00 0.00 0.00 0.00 0.00 0.00 0.00 0.00 0.00 0.00 0.00 0.00 0.00 0.01 0.01 0.01 0.01 0.01 0.01 0.00 0.01 0.01 0.02 0.02 0.02 0.04 0.04 0.05 0.05 0.04 0.03 0.02 0.03 0.02 0.04 0.05 0.04 0.04 0.04 0.03 0.03
0.00 0.00 0.00 0.00 0.00 0.00 0.00 0.00 0.00 0.00 0.00 0.00 0.00 0.00 0.00 0.00 0.00 0.00 0.00 0.01 0.02 0.02 0.01 0.01 0.01 0.02 0.02 0.01 0.01 0.02 0.01 0.02 0.03 0.04 0.03 0.04 0.04 0.04 0.02 0.02 0.03 0.03 0.03 0.04 0.04 0.03 0.02 0.02 0.03
0.00 0.00 0.00 0.00 0.00 0.00 0.00 0.00 0.00 0.00 0.00 0.00 0.00 0.00 0.00 0.00 0.00 0.00 0.00 0.01 0.02 0.02 0.01 0.01 0.01 0.02 0.03 0.03 0.02 0.02 0.01 0.02 0.02 0.02 0.02 0.03 0.03 0.03 0.02 0.02 0.03 0.03 0.03 0.02 0.03 0.03 0.02 0.02 0.03
0.00 0.00 0.00 0.00 0.00 0.00 0.00 0.00 0.00 0.00 0.00 0.00 0.00 0.00 0.00 0.00 0.00 0.00 0.00 0.01 0.02 0.02 0.02 0.01 0.01 0.01 0.02 0.03 0.03 0.02 0.01 0.02 0.01 0.03 0.03 0.03 0.03 0.02 0.02 0.03 0.03 0.03 0.02 0.02 0.03 0.03 0.02 0.01 0.02
0.00 0.00 0.00 0.00 0.00 0.00 0.00 0.00 0.00 0.00 0.00 0.00 0.00 0.00 0.00 0.00 0.00 0.00 0.00 0.01 0.02 0.02 0.02 0.01 0.02 0.02 0.02 0.04 0.05 0.03 0.03 0.04 0.03 0.03 0.03 0.03 0.03 0.02 0.03 0.03 0.03 0.03 0.02 0.02 0.03 0.03 0.03 0.02 0.01
0.00 0.00 0.00 0.00 0.00 0.00 0.00 0.00 0.00 0.00 0.00 0.00 0.00 0.00 0.00 0.00 0.00 0.00 0.00 0.00 0.01 0.02 0.02 0.01 0.02 0.03 0.03 0.03 0.05 0.04 0.02 0.03 0.03 0.04 0.04 0.04 0.03 0.04 0.04 0.03 0.04 0.03 0.03 0.03 0.03 0.02 0.03 0.03 0.02
0.00 0.00 0.00 0.00 0.00 0.00 0.00 0.00 0.00 0.00 0.00 0.00 0.00 0.00 0.00 0.00 0.00 0.00 0.00 0.01 0.01 0.01 0.02 0.02 0.02 0.02 0.03 0.04 0.04 0.03 0.03 0.02 0.03 0.04 0.04 0.04 0.03 0.05 0.04 0.04 0.04 0.04 0.03 0.05 0.05 0.04 0.04 0.03 0.03
0.00 0.00 0.00 0.00 0.00 0.00 0.00 0.00 0.00 0.00 0.00 0.00 0.00 0.00 0.00 0.00 0.01 0.01 0.01 0.01 0.01 0.01 0.02 0.03 0.02 0.03 0.03 0.05 0.05 0.04 0.04 0.05 0.06 0.04 0.03 0.03 0.03 0.03 0.05 0.04 0.04 0.04 0.04 0.05 0.07 0.07 0.06 0.06 0.05
0.00 0.00 0.00 0.00 0.00 0.00 0.00 0.00 0.00 0.00 0.00 0.00 0.00 0.00 0.00 0.00 0.00 0.00 0.00 0.00 0.00 0.01 0.02 0.02 0.03 0.03 0.05 0.06 0.06 0.04 0.05 0.06 0.05 0.05 0.05 0.05 0.04 0.03 0.04 0.05 0.06 0.05 0.05 0.05 0.05 0.06 0.08 0.07 0.08
0.00 0.00 0.00 0.00 0.00 0.00 0.00 0.00 0.00 0.00 0.00 0.00 0.00 0.00 0.00 0.00 0.00 0.00 0.00 0.00 0.01 0.00 0.01 0.01 0.02 0.04 0.05 0.05 0.06 0.06 0.05 0.05 0.05 0.04 0.05 0.05 0.05 0.03 0.04 0.06 0.06 0.06 0.07 0.07 0.06 0.08 0.10 0.09 0.11
0.00 0.00 0.00 0.00 0.00 0.00 0.00 0.00 0.00 0.00 0.00 0.00 0.00 0.00 0.00 0.00 0.00 0.00 0.00 0.01 0.01 0.01 0.01 0.01 0.02 0.04 0.04 0.05 0.07 0.07 0.07 0.07 0.07 0.04 0.03 0.04 0.05 0.05 0.05 0.04 0.07 0.05 0.05 0.06 0.06 0.08 0.09 0.08 0.09
0.00 0.00 0.00 0.00 0.00 0.00 0.00 0.00 0.00 0.00 0.00 0.00 0.00 0.00 0.00 0.00 0.00 0.00 0.00 0.00 0.01 0.01 0.02 0.01 0.02 0.03 0.04 0.04 0.06 0.06 0.06 0.06 0.05 0.04 0.04 0.03 0.02 0.04 0.05 0.05 0.05 0.06 0.07 0.07 0.08 0.10 0.09 0.07 0.07
0.00 0.00 0.00 0.00 0.00 0.00 0.00 0.00 0.00 0.00 0.00 0.00 0.00 0.00 0.00 0.00 0.00 0.00 0.00 0.00 0.01 0.01 0.02 0.01 0.02 0.03 0.03 0.04 0.04 0.04 0.05 0.04 0.04 0.05 0.05 0.04 0.04 0.06 0.07 0.05 0.06 0.07 0.06 0.08 0.10 0.09 0.08 0.08 0.08
0.00 0.00 0.00 0.00 0.00 0.00 0.00 0.00 0.00 0.00 0.00 0.00 0.00 0.00 0.00 0.00 0.01 0.01 0.00 0.00 0.01 0.01 0.01 0.01 0.02 0.03 0.03 0.03 0.04 0.05 0.05 0.05 0.06 0.06 0.05 0.04 0.04 0.04 0.06 0.05 0.06 0.07 0.06 0.07 0.06 0.06 0.07 0.09 0.09
0.00 0.00 0.00 0.00 0.00 0.00 0.00 0.00 0.00 0.00 0.00 0.00 0.00 0.00 0.00 0.01 0.04 0.02 0.01 0.00 0.01 0.00 0.00 0.01 0.02 0.02 0.03 0.03 0.04 0.04 0.03 0.03 0.04 0.05 0.05 0.05 0.05 0.04 0.03 0.04 0.05 0.06 0.06 0.05 0.05 0.08 0.08 0.08 0.08
0.00 0.00 0.00 0.00 0.00 0.00 0.00 0.00 0.00 0.00 0.00 0.00 0.00 0.00 0.00 0.01 0.02 0.03 0.02 0.01 0.01 0.00 0.00 0.00 0.01 0.01 0.03 0.03 0.03 0.03 0.03 0.04 0.04 0.05 0.06 0.05 0.06 0.05 0.03 0.04 0.06 0.07 0.06 0.05 0.06 0.07 0.07 0.07 0.08
0.00 0.00 0.00 0.01 0.01 0.00 0.00 0.00 0.00 0.00 0.00 0.00 0.00 0.00 0.00 0.00 0.01 0.08 0.04 0.00 0.01 0.01 0.00 0.00 0.00 0.01 0.02 0.03 0.03 0.02 0.02 0.03 0.04 0.05 0.05 0.05 0.05 0.06 0.05 0.04 0.06 0.06 0.05 0.04 0.04 0.05 0.06 0.07 0.07
0.00 0.00 0.00 0.00 0.00 0.00 0.00 0.00 0.00 0.00 0.00 0.00 0.00 0.00 0.00 0.00 0.01 0.03 0.02 0.00 0.00 0.01 0.00 0.00 0.00 0.01 0.02 0.02 0.02 0.02 0.02 0.02 0.03 0.04 0.04 0.04 0.04 0.05 0.04 0.04 0.04 0.04 0.04 0.04 0.04 0.04 0.06 0.06 0.06
0.00 0.00 0.00 0.00 0.00 0.00 0.00 0.00 0.00 0.00 0.00 0.00 0.00 0.00 0.00 0.00 0.00 0.00 0.00 0.00 0.00 0.00 0.00 0.00 0.00 0.01 0.02 0.02 0.02 0.02 0.01 0.02 0.02 0.02 0.02 0.02 0.02 0.02 0.02 0.03 0.02 0.02 0.03 0.04 0.04 0.04 0.05 0.07 0.07
0.00 0.00 0.00 0.00 0.00 0.00 0.00 0.00 0.00 0.00 0.00 0.00 0.00 0.00 0.00 0.00 0.00 0.00 0.00 0.00 0.00 0.00 0.00 0.00 0.00 0.01 0.01 0.01 0.01 0.01 0.01 0.01 0.01 0.01 0.02 0.02 0.01 0.02 0.03 0.03 0.03 0.03 0.03 0.03 0.05 0.05 0.05 0.06 0.06
0.00 0.00 0.00 0.00 0.00 0.00 0.00 0.00 0.00 0.00 0.00 0.00 0.00 0.00 0.00 0.00 0.00 0.00 0.00 0.00 0.00 0.00 0.00 0.00 0.00 0.00 0.00 0.00 0.00 0.01 0.01 0.01 0.01 0.01 0.01 0.02 0.02 0.03 0.02 0.02 0.02 0.03 0.03 0.04 0.04 0.04 0.05 0.05 0.04
0.00 0.00 0.00 0.00 0.00 0.00 0.00 0.00 0.00 0.00 0.00 0.00 0.00 0.00 0.00 0.00 0.00 0.00 0.00 0.00 0.00 0.00 0.00 0.00 0.00 0.00 0.00 0.00 0.00 0.01 0.01 0.01 0.01 0.02 0.02 0.02 0.02 0.02 0.02 0.01 0.01 0.02 0.03 0.04 0.04 0.04 0.05 0.06 0.05
MSLP
1007.91 1008.46 1009.24 1010.16 1011.10 1011.96 1012.66 1013.15 1013.44 1013.58 1013.63 1013.68 1013.77 1013.90 1014.07 1014.23 1014.32 1014.32 1014.22 1014.05 1013.87 1013.71 1013.65 1013.69 1013.82 1014.01 1014.18 1014.29 1014.30 1014.21 1014.04 1013.86 1013.72 1013.67 1013.72 1013.87 1014.05 1014.23 1014.35 1014.37 1014.31 1014.17 1014.02 1013.91 1013.87 1013.91 1014.02 1014.17 1014.31
1008.09 1008.81 1009.74 1010.75 1011.74 1012.60 1013.24 1013.63 1013.80 1013.80 1013.73 1013.67 1013.67 1013.76 1013.91 1014.08 1014.21 1014.25 1014.21 1014.10 1013.96 1013.86 1013.83 1013.91 1014.07 1014.29 1014.49 1014.63 1014.67 1014.62 1014.48 1014.33 1014.21 1014.17 1014.23 1014.36 1014.53 1014.69 1014.78 1014.79 1014.73 1014.61 1014.50 1014.42 1014.43 1014.51 1014.64 1014.79 1014.90
1008.42 1009.28 1010.30 1011.37 1012.37 1013.19 1013.75 1014.04 1014.09 1013.97 1013.80 1013.65 1013.60 1013.65 1013.79 1013.96 1014.11 1014.19 1014.19 1014.11 1014.02 1013.96 1013.97 1014.09 1014.30 1014.55 1014.81 1015.00 1015.09 1015.08 1014.99 1014.87 1014.77 1014.73 1014.77 1014.87 1015.00 1015.11 1015.18 1015.18 1015.12 1015.04 1014.97 1014.96 1015.02 1015.15 1015.31 1015.45 1015.54
1008.85 1009.80 1010.88 1011.96 1012.92 1013.67 1014.14 1014.33 1014.29 1014.09 1013.84 1013.65 1013.56 1013.59 1013.73 1013.90 1014.06 1014.16 1014.18 1014.13 1014.07 1014.03 1014.08 1014.24 1014.49 1014.79 1015.09 1015.34 1015.49 1015.54 1015.51 1015.43 1015.34 1015.30 1015.32 1015.38 1015.46 1015.53 1015.56 1015.55 1015.51 1015.47 1015.47 1015.52 1015.65 1015.82 1016.00 1016.14 1016.19
1009.33 1010.32 1011.39 1012.43 1013.32 1013.99 1014.37 1014.48 1014.37 1014.13 1013.87 1013.66 1013.57 1013.61 1013.75 1013.93 1014.09 1014.19 1014.21 1014.18 1014.13 1014.12 1014.19 1014.37 1014.65 1014.98 1015.33 1015.62 1015.83 1015.93 1015.95 1015.91 1015.85 1015.82 1015.82 1015.85 1015.90 1015.93 1015.95 1015.93 1015.91 1015.91 1015.97 1016.08 1016.26 1016.47 1016.66 1016.78 1016.80
1009.76 1010.74 1011.76 1012.71 1013.52 1014.09 1014.40 1014.46 1014.33 1014.09 1013.85 1013.69 1013.63 1013.70 1013.85 1014.04 1014.21 1014.30 1014.32 1014.29 1014.24 1014.24 1014.31 1014.50 1014.78 1015.13 1015.48 1015.80 1016.04 1016.18 1016.25 1016.25 1016.23 1016.22 1016.23 1016.25 1016.28 1016.30 1016.31 1016.30 1016.30 1016.34 1016.44 1016.60 1016.81 1017.03 1017.22 1017.32 1017.31
1010.10 1011.01 1011.93 1012.78 1013.48 1013.96 1014.22 1014.26 1014.16 1013.98 1013.81 1013.71 1013.72 1013.84 1014.03 1014.23 1014.40 1014.49 1014.51 1014.47 1014.43 1014.41 1014.48 1014.65 1014.91 1015.23 1015.57 1015.88 1016.12 1016.28 1016.38 1016.43 1016.45 1016.48 1016.51 1016.55 1016.59 1016.62 1016.63 1016.63 1016.65 1016.71 1016.83 1017.00 1017.22 1017.44 1017.61 1017.69 1017.65
1010.31 1011.12 1011.92 1012.65 1013.24 1013.65 1013.87 1013.94 1013.89 1013.80 1013.73 1013.73 1013.83 1014.01 1014.24 1014.46 1014.64 1014.73 1014.75 1014.72 1014.67 1014.65 1014.70 1014.84 1015.05 1015.33 1015.61 1015.88 1016.09 1016.25 1016.36 1016.44 1016.51 1016.59 1016.67 1016.75 1016.82 1016.87 1016.89 1016.90 1016.92 1016.98 1017.10 1017.26 1017.46 1017.66 1017.80 1017.85 1017.79
1010.40 1011.09 1011.76 1012.36 1012.85 1013.21 1013.43 1013.53 1013.57 1013.59 1013.64 1013.75 1013.94 1014.18 1014.44 1014.69 1014.88 1014.98 1015.01 1014.98 1014.94 1014.93 1014.96 1015.07 1015.23 1015.44 1015.65 1015.85 1016.02 1016.15 1016.25 1016.35 1016.46 1016.58 1016.71 1016.84 1016.95 1017.03 1017.07 1017.08 1017.10 1017.14 1017.23 1017.37 1017.53 1017.69 1017.80 1017.84 1017.77
1010.40 1010.97 1011.52 1012.00 1012.41 1012.73 1012.96 1013.12 1013.25 1013.38 1013.54 1013.76 1014.02 1014.32 1014.61 1014.87 1015.07 1015.19 1015.23 1015.23 1015.21 1015.21 1015.25 1015.33 1015.45 1015.59 1015.73 1015.85 1015.95 1016.03 1016.12 1016.22 1016.35 1016.51 1016.68 1016.86 1017.00 1017.11 1017.16 1017.18 1017.18 1017.20 1017.26 1017.35 1017.47 1017.59 1017.67 1017.69 1017.63
1010.39 1010.85 1011.28 1011.67 1012.01 1012.30 1012.54 1012.76 1012.98 1013.21 1013.47 1013.76 1014.09 1014.41 1014.72 1014.98 1015.18 1015.31 1015.38 1015.41 1015.43 1015.47 1015.52 1015.60 1015.69 1015.78 1015.86 1015.91 1015.94 1015.97 1016.02 1016.11 1016.24 1016.42 1016.62 1016.82 1016.99 1017.12 1017.18 1017.20 1017.19 1017.19 1017.21 1017.27 1017.35 1017.43 1017.50 1017.51 1017.46
1010.42 1010.79 1011.12 1011.42 1011.71 1011.97 1012.24 1012.51 1012.79 1013.10 1013.43 1013.77 1014.12 1014.46 1014.76 1015.00 1015.20 1015.33 1015.43 1015.50 1015.57 1015.65 1015.74 1015.84 1015.93 1016.00 1016.03 1016.03 1016.01 1015.99 1016.00 1016.06 1016.17 1016.35 1016.55 1016.76 1016.94 1017.08 1017.15 1017.17 1017.15 1017.14 1017.14 1017.18 1017.23 1017.30 1017.35 1017.36 1017.33
1010.56 1010.84 1011.09 1011.32 1011.55 1011.79 1012.07 1012.37 1012.70 1013.05 1013.42 1013.79 1014.14 1014.46 1014.73 1014.96 1015.13 1015.26 1015.37 1015.48 1015.60 1015.74 1015.88 1016.02 1016.13 1016.21 1016.23 1016.20 1016.15 1016.09 1016.06 1016.08 1016.16 1016.31 1016.49 1016.68 1016.86 1016.99 1017.06 1017.09 1017.09 1017.08 1017.08 1017.12 1017.17 1017.24 1017.29 1017.31 1017.28
1010.81 1011.03 1011.20 1011.36 1011.54 1011.76 1012.02 1012.33 1012.68 1013.06 1013.44 1013.81 1014.14 1014.43 1014.67 1014.86 1015.01 1015.13 1015.25 1015.39 1015.54 1015.72 1015.92 1016.10 1016.26 1016.36 1016.40 1016.38 1016.31 1016.23 1016.17 1016.15 1016.19 1016.29 1016.43 1016.59 1016.74 1016.85 1016.93 1016.97 1016.99 1017.01 1017.04 1017.10 1017.18 1017.26 1017.32 1017.35 1017.34
1011.18 1011.32 1011.42 1011.52 1011.65 1011.83 1012.07 1012.37 1012.72 1013.09 1013.47 1013.82 1014.14 1014.40 1014.60 1014.76 1014.88 1014.99 1015.10 1015.24 1015.42 1015.63 1015.86 1016.08 1016.28 1016.42 1016.49 1016.50 1016.45 1016.36 1016.28 1016.23 1016.22 1016.26 1016.35 1016.45 1016.57 1016.67 1016.75 1016.80 1016.86 1016.91 1016.99 1017.09 1017.20 1017.32 1017.41 1017.45 1017.44
1011.61 1011.68 1011.71 1011.75 1011.82 1011.96 1012.17 1012.45 1012.77 1013.13 1013.48 1013.82 1014.11 1014.35 1014.53 1014.67 1014.77 1014.86 1014.96 1015.10 1015.27 1015.48 1015.72 1015.97 1016.20 1016.38 1016.49 1016.53 1016.51 1016.44 1016.35 1016.27 1016.22 1016.20 1016.22 1016.28 1016.35 1016.42 1016.50 1016.57 1016.66 1016.76 1016.89 1017.04 1017.20 1017.35 1017.47 1017.54 1017.54
1012.04 1012.05 1012.02 1012.00 1012.03 1012.13 1012.30 1012.53 1012.82 1013.14 1013.47 1013.78 1014.05 1014.28 1014.46 1014.59 1014.69 1014.77 1014.86 1014.97 1015.12 1015.32 1015.55 1015.79 1016.03 1016.23 1016.38 1016.46 1016.47 1016.43 1016.35 1016.26 1016.17 1016.10 1016.06 1016.06 1016.08 1016.12 1016.19 1016.28 1016.39 1016.53 1016.71 1016.90 1017.10 1017.29 1017.45 1017.54 1017.58
1012.43 1012.38 1012.31 1012.26 1012.25 1012.31 1012.44 1012.62 1012.86 1013.12 1013.40 1013.68 1013.94 1014.16 1014.35 1014.49 1014.61 1014.70 1014.78 1014.88 1015.00 1015.16 1015.36 1015.58 1015.81 1016.02 1016.19 1016.31 1016.36 1016.35 1016.29 1016.19 1016.08 1015.97 1015.88 1015.82 1015.79 1015.80 1015.85 1015.94 1016.06 1016.22 1016.42 1016.64 1016.88 1017.10 1017.28 1017.42 1017.49
1012.71 1012.64 1012.56 1012.50 1012.49 1012.52 1012.60 1012.72 1012.88 1013.07 1013.28 1013.50 1013.73 1013.95 1014.16 1014.33 1014.48 1014.60 1014.70 1014.80 1014.90 1015.03 1015.18 1015.37 1015.57 1015.78 1015.97 1016.11 1016.20 1016.23 1016.19 1016.10 1015.98 1015.85 1015.72 1015.61 1015.54 1015.51 1015.52 1015.59 1015.70 1015.86 1016.06 1016.28 1016.52 1016.76 1016.98 1017.15 1017.28
1012.88 1012.82 1012.77 1012.75 1012.75 1012.76 1012.80 1012.84 1012.90 1012.98 1013.09 1013.23 1013.41 1013.62 1013.84 1014.06 1014.26 1014.43 1014.57 1014.69 1014.79 1014.90 1015.03 1015.18 1015.36 1015.56 1015.75 1015.92 1016.04 1016.11 1016.10 1016.03 1015.91 1015.77 1015.61 1015.47 1015.36 1015.29 1015.27 1015.29 1015.37 1015.50 1015.67 1015.87 1016.09 1016.32 1016.55 1016.76 1016.95
1012.94 1012.95 1012.97 1013.01 1013.05 1013.07 1013.06 1013.01 1012.95 1012.89 1012.85 1012.88 1012.97 1013.13 1013.36 1013.62 1013.88 1014.13 1014.34 1014.51 1014.65 1014.77 1014.90 1015.04 1015.21 1015.40 1015.60 1015.79 1015.94 1016.03 1016.06 1016.02 1015.91 1015.77 1015.60 1015.44 1015.30 1015.19 1015.12 1015.11 1015.14 1015.21 1015.32 1015.47 1015.65 1015.85 1016.07 1016.30 1016.53
1012.94 1013.05 1013.19 1013.32 1013.42 1013.45 1013.39 1013.24 1013.03 1012.79 1012.58 1012.45 1012.43 1012.52 1012.73 1013.01 1013.35 1013.68 1013.98 1014.24 1014.45 1014.62 1014.78 1014.93 1015.11 1015.31 1015.52 1015.73 1015.91 1016.03 1016.09 1016.08 1015.99 1015.86 1015.70 1015.52 1015.36 1015.23 1015.13 1015.07 1015.04 1015.05 1015.09 1015.16 1015.27 1015.42 1015.61 1015.84 1016.09
1012.92 1013.15 1013.42 1013.67 1013.84 1013.89 1013.78 1013.52 1013.14 1012.71 1012.31 1011.99 1011.83 1011.82 1011.99 1012.29 1012.68 1013.11 1013.52 1013.88 1014.19 1014.44 1014.66 1014.86 1015.07 1015.29 1015.52 1015.75 1015.95 1016.10 1016.19 1016.20 1016.14 1016.02 1015.87 1015.70 1015.54 1015.39 1015.27 1015.17 1015.09 1015.03 1015.00 1014.99 1015.02 1015.10 1015.23 1015.42 1015.67
1012.92 1013.28 1013.68 1014.04 1014.28 1014.34 1014.18 1013.81 1013.28 1012.67 1012.06 1011.56 1011.24 1011.13 1011.24 1011.54 1011.97 1012.47 1012.99 1013.46 1013.88 1014.23 1014.53 1014.81 1015.07 1015.32 1015.59 1015.84 1016.05 1016.22 1016.33 1016.35 1016.31 1016.21 1016.08 1015.92 1015.77 1015.63 1015.49 1015.37 1015.26 1015.16 1015.06 1014.98 1014.92 1014.92 1014.98 1015.11 1015.31
1012.96 1013.44 1013.95 1014.40 1014.69 1014.76 1014.56 1014.10 1013.44 1012.66 1011.89 1011.22 1010.76 1010.54 1010.58 1010.85 1011.31 1011.87 1012.47 1013.04 1013.56 1014.02 1014.41 1014.76 1015.08 1015.38 1015.67 1015.94 1016.18 1016.35 1016.47 1016.50 1016.47 1016.39 1016.27 1016.14 1016.00 1015.88 1015.76 1015.64 1015.52 1015.38 1015.24 1015.10 1014.98 1014.89 1014.86 1014.91 1015.04
1013.06 1013.60 1014.18 1014.69 1015.02 1015.09 1014.87 1014.35 1013.59 1012.71 1011.81 1011.02 1010.44 1010.13 1010.10 1010.34 1010.79 1011.38 1012.03 1012.67 1013.28 1013.81 1014.28 1014.70 1015.08 1015.43 1015.75 1016.04 1016.28 1016.46 1016.57 1016.61 1016.58 1016.50 1016.40 1016.29 1016.18 1016.09 1016.00 1015.91 1015.80 1015.66 1015.51 1015.33 1015.15 1015.00 1014.89 1014.85 1014.88
1013.18 1013.75 1014.36 1014.88 1015.23 1015.30 1015.07 1014.53 1013.74 1012.81 1011.85 1011.00 1010.35 1009.98 1009.89 1010.08 1010.50 1011.08 1011.73 1012.40 1013.03 1013.62 1014.14 1014.61 1015.04 1015.42 1015.77 1016.08 1016.33 1016.51 1016.61 1016.65 1016.62 1016.54 1016.45 1016.36 1016.28 1016.23 1016.18 1016.13 1016.06 1015.95 1015.81 1015.63 1015.43 1015.22 1015.05 1014.92 1014.86
1013.32 1013.86 1014.45 1014.96 1015.30 1015.38 1015.16 1014.64 1013.88 1012.97 1012.03 1011.18 1010.51 1010.10 1009.97 1010.10 1010.46 1010.98 1011.58 1012.22 1012.84 1013.42 1013.96 1014.46 1014.91 1015.33 1015.71 1016.03 1016.29 1016.48 1016.58 1016.61 1016.58 1016.51 1016.43 1016.36 1016.31 1016.29 1016.29 1016.29 1016.27 1016.21 1016.11 1015.95 1015.76 1015.54 1015.33 1015.14 1014.99
1013.44 1013.93 1014.47 1014.94 1015.26 1015.35 1015.16 1014.71 1014.03 1013.20 1012.33 1011.54 1010.90 1010.49 1010.31 1010.38 1010.64 1011.06 1011.56 1012.11 1012.66 1013.20 1013.72 1014.21 1014.68 1015.11 1015.52 1015.86 1016.15 1016.35 1016.46 1016.50 1016.48 1016.42 1016.35 1016.30 1016.28 1016.30 1016.35 1016.40 1016.44 1016.44 1016.40 1016.29 1016.13 1015.92 1015.70 1015.48 1015.28
1013.57 1013.99 1014.45 1014.88 1015.17 1015.28 1015.15 1014.78 1014.21 1013.51 1012.76 1012.05 1011.47 1011.06 1010.84 1010.82 1010.97 1011.25 1011.61 1012.03 1012.47 1012.92 1013.38 1013.84 1014.30 1014.75 1015.17 1015.55 1015.87 1016.11 1016.26 1016.33 1016.33 1016.30 1016.26 1016.24 1016.25 1016.30 1016.39 1016.49 1016.58 1016.65 1016.66 1016.61 1016.50 1016.34 1016.14 1015.92 1015.69
Thickness
5840 5842 5843 5837 5822 5801 5782 5785 5790 5784 5783 5787 5788 5783 5774 5768 5764 5751 5769 5776 5774 5773 5770 5764 5760 5760 5761 5761 5761 5762 5762 5762 5762 5763 5763 5763 5763 5764 5763 5763 5763 5762 5762 5762 5761 5760 5759 5758 5758
5849 5847 5842 5835 5812 5784 5775 5786 5783 5783 5786 5790 5787 5783 5775 5768 5772 5769 5772 5773 5774 5773 5770 5765 5759 5759 5760 5760 5760 5761 5761 5760 5760 5761 5761 5761 5761 5761 5761 5760 5760 5760 5760 5759 5759 5758 5757 5757 5756
5852 5850 5840 5827 5802 5786 5778 5786 5784 5788 5792 5789 5782 5782 5775 5767 5771 5771 5774 5775 5775 5772 5769 5763 5759 5759 5759 5759 5759 5759 5759 5759 5759 5759 5759 5758 5758 5759 5759 5758 5758 5758 5758 5757 5757 5756 5756 5755 5754
5853 5847 5840 5818 5792 5793 5792 5791 5792 5788 5789 5790 5785 5775 5774 5776 5777 5776 5776 5776 5775 5773 5771 5763 5759 5758 5758 5758 5758 5758 5758 5758 5758 5757 5757 5757 5757 5757 5756 5756 5756 5756 5755 5755 5755 5754 5754 5753 5753
5857 5846 5824 5804 5794 5797 5800 5799 5797 5789 5785 5786 5785 5771 5766 5775 5780 5778 5776 5776 5775 5775 5771 5766 5759 5758 5757 5757 5757 5757 5757 5756 5756 5756 5755 5755 5755 5755 5754 5754 5754 5754 5754 5753 5753 5753 5752 5752 5751
5851 5845 5817 5796 5792 5798 5802 5803 5799 5790 5785 5786 5783 5773 5766 5776 5777 5777 5777 5777 5777 5775 5773 5766 5760 5759 5757 5757 5757 5756 5756 5755 5755 5754 5754 5754 5754 5754 5753 5753 5752 5752 5752 5752 5752 5752 5751 5751 5751
5846 5836 5814 5805 5796 5796 5800 5807 5800 5792 5785 5786 5789 5775 5770 5775 5779 5779 5777 5776 5776 5776 5774 5771 5767 5762 5759 5757 5757 5756 5755 5755 5754 5754 5753 5753 5753 5752 5752 5752 5752 5752 5751 5752 5752 5751 5751 5750 5750
5857 5842 5819 5812 5803 5797 5806 5807 5804 5798 5789 5796 5795 5778 5771 5775 5781 5780 5777 5776 5775 5775 5774 5771 5770 5767 5765 5762 5757 5756 5755 5755 5754 5754 5753 5753 5753 5753 5753 5753 5752 5752 5752 5751 5751 5751 5751 5750 5750
5862 5838 5816 5815 5810 5805 5810 5804 5804 5808 5798 5795 5796 5792 5787 5784 5783 5778 5775 5773 5772 5772 5773 5773 5772 5768 5768 5766 5761 5759 5757 5756 5756 5755 5754 5756 5758 5758 5756 5754 5752 5752 5752 5752 5752 5751 5751 5751 5751
5856 5830 5821 5828 5828 5818 5812 5808 5805 5802 5793 5789 5789 5789 5788 5784 5780 5776 5773 5771 5769 5769 5772 5773 5771 5768 5768 5767 5764 5764 5763 5759 5759 5758 5758 5758 5757 5757 5757 5753 5753 5752 5752 5752 5752 5752 5753 5754 5756
5852 5833 5832 5833 5834 5827 5816 5812 5813 5803 5792 5792 5788 5786 5786 5783 5780 5778 5776 5774 5772 5772 5772 5773 5770 5767 5768 5767 5766 5765 5764 5762 5761 5759 5758 5757 5758 5759 5758 5757 5755 5754 5755 5756 5755 5756 5758 5758 5757
5845 5839 5839 5836 5835 5829 5821 5817 5811 5808 5804 5808 5803 5797 5790 5785 5783 5781 5778 5776 5775 5773 5772 5774 5771 5768 5766 5766 5766 5765 5765 5764 5763 5759 5759 5760 5760 5759 5759 5758 5759 5758 5758 5757 5758 5758 5758 5757 5757
5842 5838 5841 5840 5837 5832 5825 5818 5813 5808 5813 5812 5806 5798 5793 5790 5787 5786 5784 5781 5777 5774 5773 5773 5770 5767 5765 5763 5764 5765 5764 5764 5763 5760 5759 5759 5761 5760 5760 5758 5758 5760 5759 5759 5758 5759 5757 5757 5758
5846 5843 5839 5838 5834 5830 5822 5817 5814 5809 5814 5809 5803 5798 5796 5794 5791 5788 5784 5781 5779 5777 5776 5775 5771 5768 5766 5764 5763 5764 5765 5762 5763 5762 5761 5759 5761 5760 5760 5759 5758 5760 5759 5759 5759 5759 5758 5759 5759
5851 5838 5833 5834 5833 5830 5825 5810 5812 5816 5815 5807 5803 5800 5798 5796 5794 5790 5788 5785 5783 5780 5778 5775 5773 5770 5767 5766 5765 5766 5766 5766 5764 5762 5760 5759 5760 5759 5760 5761 5760 5761 5760 5758 5759 5759 5759 5759 5760
5846 5835 5823 5829 5833 5831 5822 5805 5817 5822 5815 5807 5805 5803 5799 5797 5797 5795 5794 5790 5787 5784 5780 5777 5777 5773 5769 5767 5765 5767 5767 5766 5764 5763 5762 5760 5760 5759 5759 5761 5762 5760 5761 5761 5760 5760 5760 5759 5759
5834 5827 5823 5824 5834 5831 5823 5815 5821 5825 5818 5811 5808 5807 5803 5800 5799 5799 5798 5794 5790 5786 5782 5779 5777 5775 5772 5769 5767 5767 5765 5764 5764 5764 5763 5762 5761 5760 5760 5761 5760 5760 5761 5761 5762 5762 5760 5757 5757
5827 5829 5825 5824 5833 5829 5822 5822 5825 5826 5822 5817 5814 5811 5808 5805 5803 5804 5801 5799 5794 5790 5785 5782 5779 5776 5774 5772 5769 5768 5767 5767 5765 5765 5763 5762 5762 5761 5761 5762 5760 5761 5762 5761 5760 5759 5758 5757 5756
5839 5832 5826 5830 5838 5829 5823 5824 5827 5828 5824 5820 5818 5815 5813 5811 5812 5809 5805 5801 5797 5792 5786 5783 5780 5777 5775 5773 5771 5768 5767 5767 5767 5766 5764 5763 5762 5762 5761 5763 5761 5761 5762 5760 5761 5760 5758 5756 5756
5837 5829 5828 5830 5835 5830 5826 5826 5833 5832 5827 5827 5824 5820 5818 5816 5813 5810 5806 5803 5799 5793 5789 5785 5782 5780 5777 5775 5773 5771 5770 5769 5769 5768 5765 5764 5763 5762 5763 5761 5762 5762 5760 5760 5759 5758 5757 5757 5757
5832 5830 5829 5826 5829 5832 5825 5823 5828 5834 5834 5832 5831 5830 5828 5822 5817 5813 5809 5806 5803 5798 5794 5791 5786 5783 5780 5778 5776 5773 5770 5769 5768 5767 5765 5764 5763 5762 5761 5761 5762 5761 5761 5760 5758 5758 5756 5755 5756
5824 5838 5835 5828 5821 5821 5823 5812 5825 5832 5829 5830 5833 5833 5832 5830 5825 5820 5815 5810 5807 5804 5800 5795 5790 5786 5782 5779 5777 5773 5769 5767 5767 5766 5766 5765 5763 5762 5761 5761 5761 5760 5761 5759 5760 5760 5757 5754 5753
5833 5841 5835 5830 5824 5821 5823 5815 5827 5834 5827 5833 5838 5839 5838 5836 5831 5825 5821 5816 5813 5810 5805 5799 5793 5788 5785 5782 5778 5774 5772 5771 5770 5767 5764 5763 5763 5762 5761 5761 5760 5759 5760 5758 5757 5756 5756 5755 5753
5836 5832 5828 5827 5825 5803 5815 5811 5817 5835 5834 5840 5844 5844 5842 5840 5836 5830 5827 5821 5816 5813 5808 5803 5795 5790 5787 5783 5780 5776 5772 5769 5767 5764 5763 5763 5763 5761 5760 5760 5759 5758 5758 5757 5756 5755 5754 5753 5751
5828 5816 5800 5795 5796 5802 5820 5812 5822 5843 5849 5848 5846 5846 5846 5844 5839 5832 5827 5822 5818 5814 5810 5805 5798 5791 5789 5786 5782 5778 5774 5770 5766 5765 5763 5761 5761 5760 5758 5759 5757 5757 5756 5755 5755 5753 5752 5751 5748
5823 5821 5799 5785 5790 5807 5811 5810 5833 5850 5853 5854 5853 5852 5849 5845 5842 5837 5831 5826 5821 5817 5812 5807 5801 5795 5791 5787 5783 5780 5776 5774 5771 5767 5765 5762 5761 5759 5757 5756 5755 5754 5753 5753 5752 5753 5750 5748 5747
5818 5820 5832 5815 5806 5801 5811 5820 5837 5848 5847 5850 5850 5849 5847 5846 5844 5840 5836 5831 5826 5820 5815 5810 5803 5798 5794 5790 5784 5780 5776 5773 5770 5766 5764 5762 5759 5759 5756 5754 5753 5751 5750 5749 5749 5748 5746 5745 5744
5829 5827 5816 5808 5787 5784 5800 5809 5821 5831 5837 5843 5845 5845 5846 5846 5845 5842 5838 5835 5830 5825 5818 5813 5806 5800 5796 5791 5787 5782 5778 5773 5770 5767 5762 5760 5758 5756 5754 5753 5751 5749 5747 5746 5745 5744 5743 5741 5740
5810 5811 5812 5811 5809 5791 5789 5809 5839 5836 5839 5842 5846 5847 5847 5846 5844 5841 5838 5836 5832 5826 5820 5813 5807 5801 5796 5792 5787 5782 5778 5774 5770 5766 5762 5758 5756 5753 5751 5749 5747 5745 5743 5742 5740 5740 5738 5737 5736
5818 5815 5809 5794 5791 5799 5800 5813 5845 5843 5846 5846 5846 5847 5848 5847 5845 5842 5838 5834 5830 5825 5820 5813 5808 5803 5798 5793 5787 5782 5777 5773 5769 5765 5761 5757 5754 5751 5748 5746 5744 5742 5740 5738 5736 5735 5734 5732 5731